星链-30051 (STARLINK-30051 )

导读

STARLINK-30051是美国SpaceX公司星链(Starlink)星座中的一颗低轨通信卫星,于2023年2月27日发射入轨。它运行在近地轨道,属于星链全球卫星互联网组网的组成部分,搭载先进通信与氪离子推进系统,具备自主避撞能力,旨在为全球尤其是基础设施薄弱地区提供高速低延迟宽带服务,设计寿命约5-7年,助力实现泛在互联网覆盖。

基本信息
目录编号:
55704
目录名称:
STARLINK-30051
国际标识:
2023-026K
轨道中心:
EARTH
卫星名称:
星链-30051
卫星全名:
星链-30051 (STARLINK-30051 )
卫星状态:
已陨落 最后检测时间 2024-06-17
发射日期:
2023-02-27 UTC
国别 :
美国 (US)
星等 :
--
该卫星已列入 空间交会检测服务 Space Conjunction Data Service (SCDS) ,当前飞行风险评估等级: 无高风险
轨道信息
数据来源 国际轨道数据
星历时间: 2024-06-17T13:41:59+0800
轨道信息已过期817天
半长轴: 6545.644km
偏心率: 0.0012881
轨道倾角: 42.985°
近地点辐角 308.573°
升交点赤经 325.296°
平近点角 185.967°
近地点: 159.077km
远地点: 175.941km
周期: 87.839分钟
每日圈数: 16.393595
详细信息
固有亮度:
5
最大亮度:
0.4
卫星平台:
Starlink v2.0 mini
覆盖范围:
全球
运营商:
太空探索技术公司
运营商所在国:
美国
制造商(研发单位):
太空探索技术公司
制造商所在国:
美国
使用方式:
暂无
卫星简介
星链(Starlink)计划是由太空探索技术公司(SpaceX)提出的一个巨型低轨卫星互联网星座项目,计划在2019年至2024年间在太空搭建由约1.2万颗卫星组成的“星链”网络,其中1584颗将部署在地球上空550千米处的近地轨道,并从2020年开始工作。该卫星已陨落。
与全量物体交会距离演化趋势
与全量物体交会风险概率演化趋势